Voltar ao catálogo

SL-14 DEB

AtivoPO
NORAD 45346·DEBRIS·🇷🇺 Russia

Lançado Aug 15, 1991 de Plesetsk Cosmodrome

Loading…

Próximas Passagens (próximas 24 horas)

TLE

AtualizadoSource: Space-Track

Época: Sep 14, 2026, 03:38 UTC

1 45346U 91056CF  26257.15194227  .00002553  00000-0  46743-2 0  9997
2 45346  82.6316  59.7023 0070441 323.6813  35.9551 13.39013266317360

Acompanhe SL-14 DEB em tempo real com AllMySat

Download on the App Store